SCP
0 0 0 0 0 0 0 0 0 0 0 0 0 0 0 1 1 0 0 0 0 0
0 0 0 0 0 0 0 0 0 0 0 0 -0 0 0 0 0 0 0 0 0 0
0 0 0 0 0 0 0 0 0 0 0 0 0 0 0 0 0 0 0 0 0 0
0 0 0 0 0 0 0 0 0 0 0 0 0 0 0 -0 0 0 0 0 0 0
0 0 0 0 0 0 0 0 0 0 0 0 0 0 0 0 0 0 0 0 0 0
0 0 0 0 0 0 0 0 0 0 0 0 0 0 0 0 0 0 0 0 0 0
0 0 0 0 0 0 0 0 0 0 0 0 0 0 0 0 0 0 0 0 0 0
0 0 0 0 0 0 0 0 0 0 0 0 0 0 0 0 0 0 0 0 0 0
0 0 0 0 0 0 0 0 0 0 0 0 0 0 0 0 0 0 0 0 0 0
0 0 0 0 0 0 0 0 0 0 0 0 0 0 0 0 0 0 0 0 0 0
0 0 0 0 0 0 0 0 0 0 0 0 0 0 0 0 0 0 0 0 0 0
0 0 0 0 0 0 0 0 0 0 0 0 0 0 0 0 0 0 0 0 0 0
0 0 0 0 0 0 0 0 0 0 0 -0 0 0 0 0 0 0 0 0 0 -0
0 0 0 0 0 0 0 0 0 0 0 0 0 0 0 0 0 0 0 0 0 0
Wind_Speed_500mb
13 11 33 37 35 38 34 36 33 39 43 52 33 56 63 61 73 78 80 92 67 93
17 8 19 29 34 34 30 25 33 38 40 51 61 49 50 58 68 70 87 84 66 90
22 19 20 31 31 32 31 29 28 30 37 33 48 65 59 51 79 77 86 81 76 92
21 24 30 31 28 26 24 29 27 27 31 33 40 52 59 53 75 85 85 88 79 72
19 25 26 25 26 26 22 22 22 23 30 30 41 44 46 51 73 68 65 73 59 58
14 14 15 15 15 17 22 21 19 26 28 27 36 37 38 39 57 74 77 57 59 55
10 9 10 11 12 12 12 20 18 17 28 26 29 35 32 38 51 60 61 51 33 25
9 6 9 12 15 12 8 11 14 15 22 25 33 35 36 39 51 54 56 46 41 32
11 7 5 5 6 7 10 10 10 13 14 11 24 37 48 41 58 50 47 50 47 43
16 9 8 9 13 12 10 16 19 17 12 19 24 43 57 54 69 66 63 56 53 47
27 24 21 20 21 25 28 33 37 40 40 43 48 52 60 63 68 70 66 65 54 48
39 36 34 37 38 40 45 50 53 58 62 60 59 53 49 57 66 71 70 63 55 46
46 50 53 54 55 56 58 63 63 69 65 62 57 43 43 48 55 61 61 53 51 44
49 51 51 53 56 59 61 61 59 59 57 53 47 40 35 34 37 40 42 41 39 37
Wind_Direction_500mb
310 220 238 239 232 223 225 234 242 241 246 236 236 232 230 227 229 228 224 222 216 231
302 236 204 205 208 212 214 221 238 246 251 246 232 235 239 236 232 222 224 211 227 230
315 273 242 223 220 217 226 229 237 249 253 265 248 235 237 259 228 222 211 215 216 219
295 279 270 253 247 237 244 249 246 252 261 274 268 249 243 264 221 214 210 210 209 224
281 268 269 267 255 246 245 244 254 251 255 268 265 249 242 269 208 208 211 216 214 216
294 279 266 267 264 257 243 240 234 247 254 265 256 241 238 256 228 211 211 204 212 216
296 270 261 253 255 258 266 236 239 253 258 264 263 232 228 246 199 191 192 191 189 214
332 281 234 225 232 230 245 240 231 262 252 250 265 222 223 237 190 180 177 175 188 182
354 338 254 215 232 186 188 233 213 222 236 237 252 188 214 214 162 162 161 152 146 145
44 51 90 116 127 133 159 161 151 150 161 157 164 163 161 156 136 141 130 133 130 132
79 89 101 116 124 131 138 136 126 125 128 126 125 137 133 129 126 121 121 120 119 123
89 94 100 105 111 116 122 117 111 109 110 104 94 98 108 120 119 114 112 113 116 117
89 98 102 106 108 108 107 104 103 99 96 97 99 112 123 117 110 112 112 112 113 109
86 90 92 96 98 98 98 97 97 102 101 101 106 102 97 98 98 95 103 104 109 114
Wind_Speed_850mb
13 11 33 37 35 38 34 36 33 39 43 52 33 56 63 61 73 78 80 92 67 93
17 8 19 29 34 34 30 25 33 38 40 51 61 49 50 58 68 70 87 84 66 90
22 19 20 31 31 32 31 29 28 30 37 33 48 65 59 51 79 77 86 81 76 92
21 24 30 31 28 26 24 29 27 27 31 33 40 52 59 53 75 85 85 88 79 72
19 25 26 25 26 26 22 22 22 23 30 30 41 44 46 51 73 68 65 73 59 58
14 14 15 15 15 17 22 21 19 26 28 27 36 37 38 39 57 74 77 57 59 55
10 9 10 11 12 12 12 20 18 17 28 26 29 35 32 38 51 60 61 51 33 25
9 6 9 12 15 12 8 11 14 15 22 25 33 35 36 39 51 54 56 46 41 32
11 7 5 5 6 7 10 10 10 13 14 11 24 37 48 41 58 50 47 50 47 43
16 9 8 9 13 12 10 16 19 17 12 19 24 43 57 54 69 66 63 56 53 47
27 24 21 20 21 25 28 33 37 40 40 43 48 52 60 63 68 70 66 65 54 48
39 36 34 37 38 40 45 50 53 58 62 60 59 53 49 57 66 71 70 63 55 46
46 50 53 54 55 56 58 63 63 69 65 62 57 43 43 48 55 61 61 53 51 44
49 51 51 53 56 59 61 61 59 59 57 53 47 40 35 34 37 40 42 41 39 37
Wind_Direction_850mb
310 220 238 239 232 223 225 234 242 241 246 236 236 232 230 227 229 228 224 222 216 231
302 236 204 205 208 212 214 221 238 246 251 246 232 235 239 236 232 222 224 211 227 230
315 273 242 223 220 217 226 229 237 249 253 265 248 235 237 259 228 222 211 215 216 219
295 279 270 253 247 237 244 249 246 252 261 274 268 249 243 264 221 214 210 210 209 224
281 268 269 267 255 246 245 244 254 251 255 268 265 249 242 269 208 208 211 216 214 216
294 279 266 267 264 257 243 240 234 247 254 265 256 241 238 256 228 211 211 204 212 216
296 270 261 253 255 258 266 236 239 253 258 264 263 232 228 246 199 191 192 191 189 214
332 281 234 225 232 230 245 240 231 262 252 250 265 222 223 237 190 180 177 175 188 182
354 338 254 215 232 186 188 233 213 222 236 237 252 188 214 214 162 162 161 152 146 145
44 51 90 116 127 133 159 161 151 150 161 157 164 163 161 156 136 141 130 133 130 132
79 89 101 116 124 131 138 136 126 125 128 126 125 137 133 129 126 121 121 120 119 123
89 94 100 105 111 116 122 117 111 109 110 104 94 98 108 120 119 114 112 113 116 117
89 98 102 106 108 108 107 104 103 99 96 97 99 112 123 117 110 112 112 112 113 109
86 90 92 96 98 98 98 97 97 102 101 101 106 102 97 98 98 95 103 104 109 114